Location: Az?znagar
(16.8373°N, 80.5091°E)
Time: 02:04:59
(UTC+00:00)

Nadezhda 4 Rocket - Pass Details

Date: 09 July 2022
Orbit: 949 x 992 km, 82.9° (Epoch: 09 August)

Event Time Altitude Azimuth Distance (km) Brightness Sun altitude
Rises 21:52:13 0° 142° (SE) 3,652 7.0 -29.5°
Reaches altitude 10° 21:56:04 10° 118° (ESE) 2,698 6.6 -28.7°
Maximum altitude 21:59:07 14° 88° (E) 2,397 6.6 -28.2°
Drops below altitude 10° 22:02:10 10° 58° (ENE) 2,686 7.3 -27.6°
Sets 22:05:57 0° 34° (NE) 3,626 8.1 -26.9°
